Huron, CA

8:40 PM PST on February 20, 2017 (GMT -0800)
Lemoore Naval Air Station

Weather History for KNLC - March, 2014

Change the Weather History Date:

Thursday, March 27, 2014

  Actual Average Record
Temperature  
Mean Temperature 58 °F -  
Max Temperature 73 °F 70 °F 91 °F (2015)
Min Temperature 44 °F 44 °F 39 °F (2002)
Degree Days  
Heating Degree Days 8    
Growing Degree Days 8 (Base 50)    
Moisture  
Dew Point 42 °F    
Average Humidity 69    
Maximum Humidity 90    
Minimum Humidity 32    
Precipitation  
Precipitation 0.00 in - - ()
Sea Level Pressure  
Sea Level Pressure 30.04 in    
Wind  
Wind Speed 6 mph (NW)    
Max Wind Speed 12 mph    
Max Gust Speed 21 mph    
Visibility 7 miles    
Events Fog    
Averages and records for this station are not official NWS values.
T = Trace of Precipitation, MM = Missing Value Source: NWS Daily Summary

Daily Weather History Graph

Daily Weather History Graph

Search for Another Location

Airport or City:

Trip Planner

Search our weather history database for the weather conditions in past years. The results will help you decide how hot, cold, wet, or windy it might be!

Date:

Astronomy

Mar. 27, 2014 Rise Set
Actual Time 6:53 AM PDT 7:17 PM PDT
Civil Twilight 6:27 AM PDT 7:43 PM PDT
Nautical Twilight 5:57 AM PDT 8:13 PM PDT
Astronomical Twilight 5:26 AM PDT 8:44 PM PDT
Moon 4:42 AM PDT (3/27) 4:15 PM PDT (3/27)
Length of Visible Light 13h 16m
Length of Day
12h 24m
Waning Crescent, 12% of the Moon is Illuminated
Mar 27
Waning Crescent
Mar 30
New
Apr 7
First Quarter
Apr 15
Full
Apr 22
Last Quarter

Hourly Weather History & Observations

Time (PDT) Temp. Windchill Dew Point Humidity Pressure Visibility Wind Dir Wind Speed Gust Speed Precip Events Conditions
12:42 AM 50.0 °F - 46.0 °F 86% 30.00 in 5.0 mi Calm Calm - N/A   Partly Cloudy
12:56 AM 46.9 °F - 43.0 °F 86% 30.00 in 5.0 mi SW 4.6 mph - N/A   Partly Cloudy
12:58 AM 46.9 °F - 43.0 °F 86% 30.00 in 1.0 mi SW 6.9 mph - N/A   Mist
1:07 AM 48.0 °F - 44.1 °F 86% 30.00 in 2.5 mi WSW 6.9 mph - N/A   Clear
1:14 AM 48.0 °F - 44.1 °F 86% 30.00 in 7.0 mi WSW 6.9 mph - N/A   Clear
1:44 AM 46.0 °F 42.5 °F 43.0 °F 89% 30.00 in 8.0 mi West 6.9 mph - N/A   Partly Cloudy
1:56 AM 46.0 °F 43.1 °F 42.1 °F 86% 30.01 in 6.0 mi WNW 5.8 mph - N/A   Partly Cloudy
2:13 AM 46.9 °F - 44.1 °F 90% 30.00 in 1.5 mi NNW 4.6 mph - N/A   Partly Cloudy
2:15 AM 46.9 °F - 44.1 °F 90% 30.00 in 1.0 mi NNW 4.6 mph - N/A   Mist
2:18 AM 46.9 °F - 44.1 °F 90% 30.00 in 0.5 mi NW 4.6 mph - N/A Fog Fog
2:26 AM 46.9 °F - 43.0 °F 86% 30.00 in 0.2 mi NW 4.6 mph - N/A Fog Fog
2:52 AM 46.4 °F 43.5 °F 42.8 °F 87% 30.00 in 1.0 mi WNW 5.8 mph - N/A   Mist
2:56 AM 46.0 °F 43.1 °F 43.0 °F 89% 30.01 in 1.2 mi NW 5.8 mph - N/A   Overcast
3:03 AM 45.0 °F 41.8 °F 42.1 °F 90% 30.01 in 0.2 mi NW 5.8 mph - N/A Fog Fog
3:25 AM 45.0 °F 41.2 °F 42.1 °F 90% 30.01 in 0.8 mi WNW 6.9 mph - N/A   Mist
3:50 AM 44.6 °F 40.2 °F 41.0 °F 87% 30.01 in 1.5 mi West 8.1 mph - N/A   Mostly Cloudy
3:52 AM 44.6 °F 40.2 °F 41.0 °F 87% 30.01 in 2.5 mi West 8.1 mph - N/A   Scattered Clouds
3:56 AM 45.0 °F 40.6 °F 41.0 °F 86% 30.01 in 6.0 mi West 8.1 mph - N/A   Scattered Clouds
4:56 AM 44.1 °F 40.1 °F 39.0 °F 82% 30.01 in 10.0 mi WNW 6.9 mph - N/A   Clear
5:56 AM 44.1 °F 39.5 °F 39.0 °F 82% 30.02 in 10.0 mi West 8.1 mph - N/A   Clear
6:56 AM 46.0 °F 42.5 °F 39.9 °F 79% 30.04 in 10.0 mi West 6.9 mph - N/A   Mostly Cloudy
7:56 AM 50.0 °F - 43.0 °F 77% 30.06 in 10.0 mi NW 4.6 mph - N/A   Overcast
8:56 AM 55.9 °F - 46.0 °F 69% 30.08 in 10.0 mi WNW 5.8 mph - N/A   Overcast
9:56 AM 59.0 °F - 46.9 °F 64% 30.10 in 10.0 mi North 5.8 mph - N/A   Mostly Cloudy
10:56 AM 63.0 °F - 46.0 °F 54% 30.10 in 10.0 mi NW 9.2 mph - N/A   Mostly Cloudy
11:56 AM 64.0 °F - 43.0 °F 46% 30.11 in 10.0 mi NNW 10.4 mph - N/A   Mostly Cloudy
12:56 PM 68.0 °F - 41.0 °F 37% 30.10 in 10.0 mi NW 8.1 mph - N/A   Mostly Cloudy
1:56 PM 69.1 °F - 39.0 °F 33% 30.08 in 10.0 mi NW 10.4 mph 16.1 mph 0.00 in   Scattered Clouds
2:56 PM 71.1 °F - 39.9 °F 32% 30.06 in 10.0 mi North 10.4 mph 20.7 mph N/A   Scattered Clouds
3:56 PM 71.1 °F - 41.0 °F 34% 30.06 in 10.0 mi North 11.5 mph 17.3 mph N/A   Scattered Clouds
4:56 PM 71.1 °F - 39.9 °F 32% 30.05 in 10.0 mi NNE 11.5 mph - N/A   Scattered Clouds
5:56 PM 70.0 °F - 39.9 °F 33% 30.05 in 10.0 mi NNW 11.5 mph - N/A   Partly Cloudy
6:56 PM 66.9 °F - 39.9 °F 37% 30.05 in 10.0 mi North 11.5 mph - N/A   Scattered Clouds
7:56 PM 63.0 °F - 39.9 °F 43% 30.07 in 10.0 mi NNW 8.1 mph - N/A   Scattered Clouds
8:56 PM 57.0 °F - 39.0 °F 51% 30.09 in 10.0 mi NNW 9.2 mph - N/A   Partly Cloudy
9:56 PM 55.9 °F - 39.9 °F 55% 30.11 in 10.0 mi NNW 8.1 mph - N/A   Clear
10:56 PM 57.0 °F - 41.0 °F 55% 30.12 in 10.0 mi NNW 9.2 mph - N/A   Clear
11:56 PM 57.0 °F - 42.1 °F 57% 30.14 in 10.0 mi WNW 8.1 mph - N/A   Clear